"Sample Date","Sample Time","Sample Value","Units","Flow Rate","Sample Interval","Number Channels","Micron Size 0","Counts/Channel 0","Micron Size 1","Counts/Channel 1","Micron Size 2","Counts/Channel 2","Micron Size 3","Counts/Channel 3","Micron Size 4","Counts/Channel 4","Micron Size 5","Counts/Channel 5","Micron Size 6","Counts/Channel 6","Micron Size 7","Counts/Channel 7","Micron Size 8","Counts/Channel 8","Micron Size 9","Counts/Channel 9","Micron Size 10","Counts/Channel 10","Micron Size 11","Counts/Channel 11","Micron Size 12","Counts/Channel 12","Micron Size 13","Counts/Channel 13","Micron Size 14","Counts/Channel 14","Micron Size 15","Counts/Channel 15","Micron Size 16","Counts/Channel 16","Micron Size 17","Counts/Channel 17","Micron Size 18","Counts/Channel 18","Micron Size 19","Counts/Channel 19","Micron Size 20","Counts/Channel 20","Micron Size 21","Counts/Channel 21","Micron Size 22","Counts/Channel 22","Micron Size 23","Counts/Channel 23","Micron Size 24","Counts/Channel 24","Micron Size 25","Counts/Channel 25","Micron Size 26","Counts/Channel 26","Micron Size 27","Counts/Channel 27","Micron Size 28","Counts/Channel 28","Micron Size 29","Counts/Channel 29","Micron Size 30","Counts/Channel 30","Micron Size 31","Counts/Channel 31"
"03/08/08","09:00:03",2491.000,"cc",28296.533,6.00,6,0.100,2066.000,0.200,336.000,0.300,76.000,0.500,13.000,1.000,0,5.000,0
"03/08/08","09:00:09",2603.000,"cc",28247.328,6.00,6,0.100,2185.000,0.200,335.000,0.300,68.000,0.500,15.000,1.000,0,5.000,0
"03/08/08","09:00:15",2601.000,"cc",28286.900,6.00,6,0.100,2181.000,0.200,335.000,0.300,67.000,0.500,17.000,1.000,1.000,5.000,0
"03/08/08","09:00:21",2687.000,"cc",28364.898,6.00,6,0.100,2220.000,0.200,339.000,0.300,100.000,0.500,25.000,1.000,3.000,5.000,0
"03/08/08","09:00:27",2672.000,"cc",28340.400,6.00,6,0.100,2221.000,0.200,331.000,0.300,95.000,0.500,24.000,1.000,1.000,5.000,0
"03/08/08","09:00:33",2460.000,"cc",28249.047,6.00,6,0.100,2024.000,0.200,317.000,0.300,94.000,0.500,23.000,1.000,2.000,5.000,0
"03/08/08","09:00:39",2331.000,"cc",28280.924,6.00,6,0.100,1946.000,0.200,273.000,0.300,98.000,0.500,13.000,1.000,1.000,5.000,0
"03/08/08","09:00:45",2291.000,"cc",28239.947,6.00,6,0.100,1835.000,0.200,325.000,0.300,103.000,0.500,26.000,1.000,2.000,5.000,0
"03/08/08","09:00:51",2145.000,"cc",28285.486,6.00,6,0.100,1789.000,0.200,256.000,0.300,81.000,0.500,17.000,1.000,2.000,5.000,0
"03/08/08","09:00:57",2100.000,"cc",28300.574,6.00,6,0.100,1767.000,0.200,247.000,0.300,65.000,0.500,21.000,1.000,0,5.000,0
"03/08/08","09:01:03",2010.000,"cc",28339.441,6.00,6,0.100,1692.000,0.200,250.000,0.300,61.000,0.500,7.000,1.000,0,5.000,0
"03/08/08","09:01:09",2170.000,"cc",28340.072,6.00,6,0.100,1791.000,0.200,306.000,0.300,57.000,0.500,16.000,1.000,0,5.000,0
"03/08/08","09:01:15",2311.000,"cc",28337.031,6.00,6,0.100,1950.000,0.200,264.000,0.300,71.000,0.500,24.000,1.000,2.000,5.000,0
"03/08/08","09:01:21",2051.000,"cc",28345.455,6.00,6,0.100,1730.000,0.200,249.000,0.300,59.000,0.500,12.000,1.000,1.000,5.000,0
"03/08/08","09:01:27",2244.000,"cc",28354.998,6.00,6,0.100,1855.000,0.200,302.000,0.300,70.000,0.500,17.000,1.000,0,5.000,0
"03/08/08","09:01:33",1966.000,"cc",28399.969,6.00,6,0.100,1634.000,0.200,261.000,0.300,58.000,0.500,13.000,1.000,0,5.000,0
"03/08/08","09:01:39",2066.000,"cc",28278.223,6.00,6,0.100,1748.000,0.200,236.000,0.300,70.000,0.500,12.000,1.000,0,5.000,0
"03/08/08","09:01:45",2185.000,"cc",28280.674,6.00,6,0.100,1821.000,0.200,293.000,0.300,61.000,0.500,9.000,1.000,1.000,5.000,0
"03/08/08","09:01:51",2119.000,"cc",28250.065,6.00,6,0.100,1805.000,0.200,247.000,0.300,55.000,0.500,12.000,1.000,0,5.000,0
"03/08/08","09:01:57",2309.000,"cc",28278.580,6.00,6,0.100,1943.000,0.200,289.000,0.300,63.000,0.500,13.000,1.000,1.000,5.000,0
"03/08/08","09:02:03",2056.000,"cc",28344.668,6.00,6,0.100,1738.000,0.200,247.000,0.300,54.000,0.500,17.000,1.000,0,5.000,0
"03/08/08","09:02:09",2188.000,"cc",28357.293,6.00,6,0.100,1849.000,0.200,267.000,0.300,66.000,0.500,6.000,1.000,0,5.000,0
"03/08/08","09:02:15",2235.000,"cc",28305.156,6.00,6,0.100,1866.000,0.200,283.000,0.300,69.000,0.500,15.000,1.000,2.000,5.000,0
"03/08/08","09:02:21",2330.000,"cc",28285.938,6.00,6,0.100,1941.000,0.200,283.000,0.300,78.000,0.500,27.000,1.000,1.000,5.000,0
"03/08/08","09:02:27",2282.000,"cc",28350.018,6.00,6,0.100,1909.000,0.200,272.000,0.300,83.000,0.500,17.000,1.000,1.000,5.000,0
"03/08/08","09:02:33",2281.000,"cc",28338.272,6.00,6,0.100,1894.000,0.200,294.000,0.300,79.000,0.500,14.000,1.000,0,5.000,0
"03/08/08","09:02:39",2411.000,"cc",28280.522,6.00,6,0.100,2024.000,0.200,289.000,0.300,76.000,0.500,20.000,1.000,2.000,5.000,0
"03/08/08","09:02:45",2481.000,"cc",28297.156,6.00,6,0.100,2047.000,0.200,323.000,0.300,85.000,0.500,26.000,1.000,0,5.000,0
"03/08/08","09:02:51",2244.000,"cc",28357.604,6.00,6,0.100,1864.000,0.200,280.000,0.300,86.000,0.500,14.000,1.000,0,5.000,0
"03/08/08","09:02:57",2078.000,"cc",28329.266,6.00,6,0.100,1742.000,0.200,249.000,0.300,65.000,0.500,22.000,1.000,0,5.000,0
"03/08/08","09:03:03",2077.000,"cc",28316.547,6.00,6,0.100,1744.000,0.200,246.000,0.300,74.000,0.500,12.000,1.000,1.000,5.000,0
"03/08/08","09:03:09",2072.000,"cc",28273.348,6.00,6,0.100,1683.000,0.200,313.000,0.300,61.000,0.500,14.000,1.000,1.000,5.000,0
"03/08/08","09:03:15",2019.000,"cc",28365.400,6.00,6,0.100,1644.000,0.200,264.000,0.300,87.000,0.500,22.000,1.000,2.000,5.000,0
"03/08/08","09:03:21",1873.000,"cc",28326.023,6.00,6,0.100,1574.000,0.200,225.000,0.300,58.000,0.500,16.000,1.000,0,5.000,0
"03/08/08","09:03:27",1988.000,"cc",28307.576,6.00,6,0.100,1666.000,0.200,242.000,0.300,65.000,0.500,14.000,1.000,1.000,5.000,0
"03/08/08","09:03:33",2204.000,"cc",28232.709,6.00,6,0.100,1782.000,0.200,318.000,0.300,82.000,0.500,20.000,1.000,2.000,5.000,0
"03/08/08","09:03:39",2156.000,"cc",28384.617,6.00,6,0.100,1738.000,0.200,305.000,0.300,83.000,0.500,27.000,1.000,3.000,5.000,0
"03/08/08","09:03:45",2323.000,"cc",28285.643,6.00,6,0.100,1919.000,0.200,314.000,0.300,70.000,0.500,20.000,1.000,0,5.000,0
"03/08/08","09:03:51",2269.000,"cc",28328.619,6.00,6,0.100,1891.000,0.200,295.000,0.300,72.000,0.500,10.000,1.000,1.000,5.000,0
"03/08/08","09:03:57",2042.000,"cc",28353.998,6.00,6,0.100,1701.000,0.200,271.000,0.300,55.000,0.500,15.000,1.000,0,5.000,0
"03/08/08","09:04:03",2149.000,"cc",28297.680,6.00,6,0.100,1745.000,0.200,287.000,0.300,85.000,0.500,31.000,1.000,1.000,5.000,0
"03/08/08","09:04:09",2087.000,"cc",28283.084,6.00,6,0.100,1758.000,0.200,265.000,0.300,55.000,0.500,9.000,1.000,0,5.000,0
"03/08/08","09:04:15",2229.000,"cc",28335.992,6.00,6,0.100,1845.000,0.200,290.000,0.300,74.000,0.500,17.000,1.000,3.000,5.000,0
"03/08/08","09:04:21",1998.000,"cc",28299.584,6.00,6,0.100,1612.000,0.200,270.000,0.300,90.000,0.500,26.000,1.000,0,5.000,0
"03/08/08","09:04:27",2159.000,"cc",28360.357,6.00,6,0.100,1803.000,0.200,265.000,0.300,71.000,0.500,19.000,1.000,1.000,5.000,0
"03/08/08","09:04:33",2272.000,"cc",28337.123,6.00,6,0.100,1858.000,0.200,295.000,0.300,90.000,0.500,26.000,1.000,3.000,5.000,0
"03/08/08","09:04:39",2263.000,"cc",28281.785,6.00,6,0.100,1864.000,0.200,297.000,0.300,83.000,0.500,18.000,1.000,1.000,5.000,0
"03/08/08","09:04:45",2064.000,"cc",28351.383,6.00,6,0.100,1695.000,0.200,277.000,0.300,78.000,0.500,14.000,1.000,0,5.000,0
"03/08/08","09:04:51",2117.000,"cc",28257.094,6.00,6,0.100,1733.000,0.200,291.000,0.300,80.000,0.500,13.000,1.000,0,5.000,0
"03/08/08","09:04:57",2137.000,"cc",28305.895,6.00,6,0.100,1801.000,0.200,233.000,0.300,80.000,0.500,21.000,1.000,2.000,5.000,0
"03/08/08","09:05:03",2052.000,"cc",28400.816,6.00,6,0.100,1754.000,0.200,247.000,0.300,46.000,0.500,5.000,1.000,0,5.000,0
"03/08/08","09:05:09",1792.000,"cc",28332.135,6.00,6,0.100,1534.000,0.200,206.000,0.300,41.000,0.500,11.000,1.000,0,5.000,0
"03/08/08","09:05:15",1610.000,"cc",28291.895,6.00,6,0.100,1381.000,0.200,189.000,0.300,29.000,0.500,11.000,1.000,0,5.000,0
"03/08/08","09:05:21",2022.000,"cc",28311.039,6.00,6,0.100,1685.000,0.200,255.000,0.300,68.000,0.500,14.000,1.000,0,5.000,0
"03/08/08","09:05:27",1845.000,"cc",28349.883,6.00,6,0.100,1497.000,0.200,261.000,0.300,74.000,0.500,12.000,1.000,1.000,5.000,0
"03/08/08","09:05:33",1878.000,"cc",28253.418,6.00,6,0.100,1599.000,0.200,227.000,0.300,45.000,0.500,7.000,1.000,0,5.000,0
"03/08/08","09:05:39",2077.000,"cc",28273.184,6.00,6,0.100,1664.000,0.200,321.000,0.300,76.000,0.500,16.000,1.000,0,5.000,0
"03/08/08","09:05:45",1763.000,"cc",28310.693,6.00,6,0.100,1459.000,0.200,225.000,0.300,67.000,0.500,11.000,1.000,1.000,5.000,0
"03/08/08","09:05:51",2085.000,"cc",28317.498,6.00,6,0.100,1721.000,0.200,261.000,0.300,79.000,0.500,22.000,1.000,2.000,5.000,0
"03/08/08","09:05:57",2199.000,"cc",28354.857,6.00,6,0.100,1801.000,0.200,301.000,0.300,81.000,0.500,16.000,1.000,0,5.000,0
"03/08/08","09:06:03",2141.000,"cc",28218.340,6.00,6,0.100,1836.000,0.200,238.000,0.300,56.000,0.500,10.000,1.000,1.000,5.000,0
"03/08/08","09:06:09",2133.000,"cc",28346.902,6.00,6,0.100,1800.000,0.200,251.000,0.300,63.000,0.500,19.000,1.000,0,5.000,0
"03/08/08","09:06:15",2235.000,"cc",28373.492,6.00,6,0.100,1863.000,0.200,282.000,0.300,76.000,0.500,14.000,1.000,0,5.000,0
"03/08/08","09:06:21",2124.000,"cc",28297.432,6.00,6,0.100,1786.000,0.200,257.000,0.300,66.000,0.500,15.000,1.000,0,5.000,0
"03/08/08","09:06:27",1910.000,"cc",28316.537,6.00,6,0.100,1609.000,0.200,238.000,0.300,53.000,0.500,10.000,1.000,0,5.000,0
"03/08/08","09:06:33",1942.000,"cc",28356.543,6.00,6,0.100,1638.000,0.200,245.000,0.300,45.000,0.500,13.000,1.000,1.000,5.000,0
"03/08/08","09:06:39",1753.000,"cc",28352.852,6.00,6,0.100,1424.000,0.200,248.000,0.300,66.000,0.500,15.000,1.000,0,5.000,0
"03/08/08","09:06:45",1835.000,"cc",28319.281,6.00,6,0.100,1529.000,0.200,226.000,0.300,64.000,0.500,16.000,1.000,0,5.000,0
"03/08/08","09:06:51",2046.000,"cc",28262.309,6.00,6,0.100,1717.000,0.200,252.000,0.300,63.000,0.500,12.000,1.000,2.000,5.000,0
"03/08/08","09:06:57",1919.000,"cc",28346.473,6.00,6,0.100,1601.000,0.200,245.000,0.300,67.000,0.500,5.000,1.000,1.000,5.000,0
"03/08/08","09:07:03",2151.000,"cc",28302.529,6.00,6,0.100,1811.000,0.200,242.000,0.300,76.000,0.500,22.000,1.000,0,5.000,0
"03/08/08","09:07:09",1866.000,"cc",28315.436,6.00,6,0.100,1574.000,0.200,208.000,0.300,77.000,0.500,7.000,1.000,0,5.000,0
"03/08/08","09:07:15",1847.000,"cc",28420.643,6.00,6,0.100,1574.000,0.200,219.000,0.300,45.000,0.500,9.000,1.000,0,5.000,0
"03/08/08","09:07:21",1890.000,"cc",28249.941,6.00,6,0.100,1602.000,0.200,225.000,0.300,57.000,0.500,6.000,1.000,0,5.000,0
"03/08/08","09:07:27",1775.000,"cc",28264.707,6.00,6,0.100,1471.000,0.200,235.000,0.300,63.000,0.500,6.000,1.000,0,5.000,0
"03/08/08","09:07:33",1990.000,"cc",28259.516,6.00,6,0.100,1684.000,0.200,234.000,0.300,63.000,0.500,8.000,1.000,1.000,5.000,0
"03/08/08","09:07:39",2024.000,"cc",28308.717,6.00,6,0.100,1687.000,0.200,256.000,0.300,68.000,0.500,13.000,1.000,0,5.000,0
"03/08/08","09:07:45",1761.000,"cc",28377.422,6.00,6,0.100,1451.000,0.200,237.000,0.300,58.000,0.500,15.000,1.000,0,5.000,0
"03/08/08","09:07:51",1922.000,"cc",28334.213,6.00,6,0.100,1570.000,0.200,261.000,0.300,73.000,0.500,18.000,1.000,0,5.000,0
"03/08/08","09:07:57",1827.000,"cc",28342.426,6.00,6,0.100,1489.000,0.200,260.000,0.300,59.000,0.500,19.000,1.000,0,5.000,0
"03/08/08","09:08:03",1855.000,"cc",28337.119,6.00,6,0.100,1526.000,0.200,249.000,0.300,67.000,0.500,13.000,1.000,0,5.000,0
"03/08/08","09:08:09",1869.000,"cc",28298.389,6.00,6,0.100,1546.000,0.200,253.000,0.300,63.000,0.500,6.000,1.000,1.000,5.000,0
"03/08/08","09:08:15",1868.000,"cc",28302.904,6.00,6,0.100,1563.000,0.200,245.000,0.300,52.000,0.500,8.000,1.000,0,5.000,0
"03/08/08","09:08:21",1726.000,"cc",28374.941,6.00,6,0.100,1422.000,0.200,222.000,0.300,71.000,0.500,9.000,1.000,2.000,5.000,0
"03/08/08","09:08:27",1893.000,"cc",28283.643,6.00,6,0.100,1525.000,0.200,274.000,0.300,74.000,0.500,20.000,1.000,0,5.000,0
"03/08/08","09:08:33",1924.000,"cc",28345.770,6.00,6,0.100,1594.000,0.200,248.000,0.300,69.000,0.500,13.000,1.000,0,5.000,0
"03/08/08","09:08:39",1981.000,"cc",28288.998,6.00,6,0.100,1602.000,0.200,276.000,0.300,78.000,0.500,25.000,1.000,0,5.000,0
"03/08/08","09:08:45",1791.000,"cc",28331.932,6.00,6,0.100,1431.000,0.200,261.000,0.300,82.000,0.500,17.000,1.000,0,5.000,0
"03/08/08","09:08:51",1792.000,"cc",28344.713,6.00,6,0.100,1454.000,0.200,240.000,0.300,82.000,0.500,16.000,1.000,0,5.000,0
"03/08/08","09:08:57",1844.000,"cc",28271.783,6.00,6,0.100,1549.000,0.200,233.000,0.300,49.000,0.500,13.000,1.000,0,5.000,0
"03/08/08","09:09:03",1690.000,"cc",28390.709,6.00,6,0.100,1365.000,0.200,238.000,0.300,73.000,0.500,14.000,1.000,0,5.000,0
"03/08/08","09:09:09",1860.000,"cc",28319.193,6.00,6,0.100,1508.000,0.200,269.000,0.300,69.000,0.500,14.000,1.000,0,5.000,0
"03/08/08","09:09:15",1882.000,"cc",28391.156,6.00,6,0.100,1517.000,0.200,272.000,0.300,75.000,0.500,16.000,1.000,2.000,5.000,0
"03/08/08","09:09:21",1915.000,"cc",28227.754,6.00,6,0.100,1567.000,0.200,266.000,0.300,69.000,0.500,11.000,1.000,2.000,5.000,0
"03/08/08","09:09:27",2006.000,"cc",28297.432,6.00,6,0.100,1622.000,0.200,265.000,0.300,86.000,0.500,32.000,1.000,1.000,5.000,0
"03/08/08","09:09:33",1850.000,"cc",28224.418,6.00,6,0.100,1516.000,0.200,258.000,0.300,62.000,0.500,14.000,1.000,0,5.000,0
"03/08/08","09:09:39",2207.000,"cc",28312.822,6.00,6,0.100,1756.000,0.200,315.000,0.300,99.000,0.500,37.000,1.000,0,5.000,0
"03/08/08","09:09:45",2012.000,"cc",28316.846,6.00,6,0.100,1611.000,0.200,288.000,0.300,89.000,0.500,23.000,1.000,1.000,5.000,0
"03/08/08","09:09:51",1973.000,"cc",28354.566,6.00,6,0.100,1609.000,0.200,265.000,0.300,72.000,0.500,25.000,1.000,2.000,5.000,0
"03/08/08","09:09:57",1784.000,"cc",28370.303,6.00,6,0.100,1470.000,0.200,220.000,0.300,81.000,0.500,13.000,1.000,0,5.000,0
"03/08/08","09:10:03",1723.000,"cc",28302.293,6.00,6,0.100,1425.000,0.200,207.000,0.300,76.000,0.500,13.000,1.000,2.000,5.000,0
"03/08/08","09:10:09",1750.000,"cc",28335.551,6.00,6,0.100,1404.000,0.200,227.000,0.300,87.000,0.500,31.000,1.000,1.000,5.000,0
"03/08/08","09:10:15",1419.000,"cc",28325.824,6.00,6,0.100,1179.000,0.200,165.000,0.300,61.000,0.500,13.000,1.000,1.000,5.000,0
"03/08/08","09:10:21",1596.000,"cc",28316.561,6.00,6,0.100,1285.000,0.200,235.000,0.300,64.000,0.500,10.000,1.000,2.000,5.000,0
"03/08/08","09:10:27",1871.000,"cc",28285.684,6.00,6,0.100,1508.000,0.200,252.000,0.300,94.000,0.500,16.000,1.000,1.000,5.000,0
"03/08/08","09:10:33",1717.000,"cc",28286.481,6.00,6,0.100,1330.000,0.200,271.000,0.300,91.000,0.500,25.000,1.000,0,5.000,0
"03/08/08","09:10:39",1701.000,"cc",28378.190,6.00,6,0.100,1347.000,0.200,267.000,0.300,69.000,0.500,17.000,1.000,1.000,5.000,0
"03/08/08","09:10:45",1758.000,"cc",28326.744,6.00,6,0.100,1396.000,0.200,258.000,0.300,87.000,0.500,16.000,1.000,1.000,5.000,0
"03/08/08","09:10:51",1830.000,"cc",28320.797,6.00,6,0.100,1458.000,0.200,270.000,0.300,82.000,0.500,17.000,1.000,3.000,5.000,0
"03/08/08","09:10:57",1793.000,"cc",28246.586,6.00,6,0.100,1471.000,0.200,224.000,0.300,72.000,0.500,26.000,1.000,0,5.000,0
"03/08/08","09:11:03",1896.000,"cc",28335.488,6.00,6,0.100,1515.000,0.200,275.000,0.300,85.000,0.500,19.000,1.000,2.000,5.000,0
"03/08/08","09:11:09",1763.000,"cc",28336.375,6.00,6,0.100,1417.000,0.200,235.000,0.300,95.000,0.500,14.000,1.000,2.000,5.000,0
"03/08/08","09:11:15",1824.000,"cc",28374.242,6.00,6,0.100,1477.000,0.200,269.000,0.300,64.000,0.500,14.000,1.000,0,5.000,0
"03/08/08","09:11:21",1964.000,"cc",28276.092,6.00,6,0.100,1577.000,0.200,290.000,0.300,78.000,0.500,18.000,1.000,1.000,5.000,0
"03/08/08","09:11:27",2030.000,"cc",28260.107,6.00,6,0.100,1587.000,0.200,314.000,0.300,107.000,0.500,19.000,1.000,3.000,5.000,0
"03/08/08","09:11:33",1783.000,"cc",28334.371,6.00,6,0.100,1386.000,0.200,277.000,0.300,93.000,0.500,27.000,1.000,0,5.000,0
"03/08/08","09:11:39",1813.000,"cc",28327.898,6.00,6,0.100,1452.000,0.200,256.000,0.300,84.000,0.500,20.000,1.000,1.000,5.000,0
"03/08/08","09:11:45",1978.000,"cc",28357.031,6.00,6,0.100,1567.000,0.200,270.000,0.300,115.000,0.500,26.000,1.000,0,5.000,0
"03/08/08","09:11:51",2041.000,"cc",28367.065,6.00,6,0.100,1653.000,0.200,267.000,0.300,94.000,0.500,26.000,1.000,1.000,5.000,0
"03/08/08","09:11:57",1770.000,"cc",28255.477,6.00,6,0.100,1384.000,0.200,232.000,0.300,109.000,0.500,43.000,1.000,2.000,5.000,0
"03/08/08","09:12:03",1877.000,"cc",28254.666,6.00,6,0.100,1453.000,0.200,259.000,0.300,115.000,0.500,44.000,1.000,6.000,5.000,0
"03/08/08","09:12:09",1810.000,"cc",28307.272,6.00,6,0.100,1453.000,0.200,233.000,0.300,83.000,0.500,40.000,1.000,1.000,5.000,0
"03/08/08","09:12:15",1866.000,"cc",28333.481,6.00,6,0.100,1473.000,0.200,270.000,0.300,98.000,0.500,23.000,1.000,2.000,5.000,0
"03/08/08","09:12:21",1686.000,"cc",28278.441,6.00,6,0.100,1334.000,0.200,246.000,0.300,83.000,0.500,23.000,1.000,0,5.000,0
"03/08/08","09:12:27",1711.000,"cc",28300.463,6.00,6,0.100,1326.000,0.200,246.000,0.300,103.000,0.500,35.000,1.000,1.000,5.000,0
"03/08/08","09:12:33",1356.000,"cc",28361.363,6.00,6,0.100,1071.000,0.200,195.000,0.300,62.000,0.500,28.000,1.000,0,5.000,0
"03/08/08","09:12:39",1519.000,"cc",28381.885,6.00,6,0.100,1187.000,0.200,209.000,0.300,94.000,0.500,27.000,1.000,2.000,5.000,0
"03/08/08","09:12:45",1810.000,"cc",28325.600,6.00,6,0.100,1356.000,0.200,301.000,0.300,112.000,0.500,41.000,1.000,0,5.000,0
"03/08/08","09:12:51",1909.000,"cc",28282.783,6.00,6,0.100,1427.000,0.200,302.000,0.300,140.000,0.500,33.000,1.000,7.000,5.000,0
"03/08/08","09:12:57",1465.000,"cc",28301.211,6.00,6,0.100,1151.000,0.200,209.000,0.300,74.000,0.500,30.000,1.000,1.000,5.000,0
"03/08/08","09:13:03",1648.000,"cc",28301.453,6.00,6,0.100,1316.000,0.200,219.000,0.300,75.000,0.500,37.000,1.000,1.000,5.000,0
"03/08/08","09:13:09",1732.000,"cc",28296.139,6.00,6,0.100,1301.000,0.200,263.000,0.300,114.000,0.500,51.000,1.000,3.000,5.000,0
"03/08/08","09:13:15",1518.000,"cc",28357.660,6.00,6,0.100,1156.000,0.200,233.000,0.300,97.000,0.500,31.000,1.000,1.000,5.000,0
"03/08/08","09:13:21",1859.000,"cc",28328.750,6.00,6,0.100,1421.000,0.200,276.000,0.300,122.000,0.500,40.000,1.000,0,5.000,0
"03/08/08","09:13:27",1892.000,"cc",28292.523,6.00,6,0.100,1375.000,0.200,352.000,0.300,125.000,0.500,40.000,1.000,0,5.000,0
"03/08/08","09:13:33",1802.000,"cc",28336.895,6.00,6,0.100,1378.000,0.200,281.000,0.300,111.000,0.500,30.000,1.000,2.000,5.000,0
"03/08/08","09:13:39",1958.000,"cc",28335.014,6.00,6,0.100,1485.000,0.200,296.000,0.300,140.000,0.500,32.000,1.000,5.000,5.000,0
"03/08/08","09:13:45",2031.000,"cc",28333.457,6.00,6,0.100,1555.000,0.200,337.000,0.300,102.000,0.500,36.000,1.000,1.000,5.000,0
"03/08/08","09:13:51",1950.000,"cc",28326.645,6.00,6,0.100,1497.000,0.200,298.000,0.300,119.000,0.500,33.000,1.000,3.000,5.000,0
"03/08/08","09:13:57",1751.000,"cc",28316.863,6.00,6,0.100,1341.000,0.200,280.000,0.300,98.000,0.500,31.000,1.000,1.000,5.000,0
"03/08/08","09:14:03",1766.000,"cc",28299.691,6.00,6,0.100,1352.000,0.200,274.000,0.300,105.000,0.500,33.000,1.000,2.000,5.000,0
"03/08/08","09:14:09",1832.000,"cc",28268.816,6.00,6,0.100,1397.000,0.200,274.000,0.300,119.000,0.500,41.000,1.000,1.000,5.000,0
"03/08/08","09:14:15",1733.000,"cc",28377.693,6.00,6,0.100,1315.000,0.200,277.000,0.300,115.000,0.500,24.000,1.000,2.000,5.000,0
"03/08/08","09:14:21",1860.000,"cc",28295.379,6.00,6,0.100,1454.000,0.200,273.000,0.300,108.000,0.500,23.000,1.000,2.000,5.000,0
"03/08/08","09:14:27",1647.000,"cc",28326.070,6.00,6,0.100,1289.000,0.200,224.000,0.300,97.000,0.500,36.000,1.000,1.000,5.000,0
"03/08/08","09:14:33",1796.000,"cc",28243.965,6.00,6,0.100,1364.000,0.200,308.000,0.300,87.000,0.500,37.000,1.000,0,5.000,0
"03/08/08","09:14:39",1828.000,"cc",28358.648,6.00,6,0.100,1427.000,0.200,265.000,0.300,104.000,0.500,31.000,1.000,1.000,5.000,0
"03/08/08","09:14:45",1933.000,"cc",28320.219,6.00,6,0.100,1492.000,0.200,294.000,0.300,114.000,0.500,33.000,1.000,0,5.000,0
"03/08/08","09:14:51",1782.000,"cc",28242.606,6.00,6,0.100,1361.000,0.200,260.000,0.300,123.000,0.500,36.000,1.000,2.000,5.000,0
"03/08/08","09:14:57",1963.000,"cc",28349.736,6.00,6,0.100,1540.000,0.200,266.000,0.300,116.000,0.500,40.000,1.000,1.000,5.000,0
"03/08/08","09:15:03",2029.000,"cc",28317.457,6.00,6,0.100,1536.000,0.200,326.000,0.300,119.000,0.500,47.000,1.000,1.000,5.000,0
"03/08/08","09:15:09",1779.000,"cc",28323.221,6.00,6,0.100,1334.000,0.200,283.000,0.300,123.000,0.500,37.000,1.000,2.000,5.000,0
"03/08/08","09:15:15",1715.000,"cc",28405.035,6.00,6,0.100,1336.000,0.200,254.000,0.300,85.000,0.500,40.000,1.000,0,5.000,0
"03/08/08","09:15:21",1684.000,"cc",28265.721,6.00,6,0.100,1319.000,0.200,243.000,0.300,96.000,0.500,26.000,1.000,0,5.000,0
"03/08/08","09:15:27",1675.000,"cc",28276.719,6.00,6,0.100,1347.000,0.200,261.000,0.300,53.000,0.500,14.000,1.000,0,5.000,0
"03/08/08","09:15:33",2054.000,"cc",28316.361,6.00,6,0.100,1588.000,0.200,308.000,0.300,111.000,0.500,43.000,1.000,4.000,5.000,0
"03/08/08","09:15:39",1913.000,"cc",28364.721,6.00,6,0.100,1499.000,0.200,289.000,0.300,101.000,0.500,19.000,1.000,5.000,5.000,0
"03/08/08","09:15:45",1543.000,"cc",28341.576,6.00,6,0.100,1208.000,0.200,235.000,0.300,80.000,0.500,19.000,1.000,1.000,5.000,0
"03/08/08","09:15:51",1659.000,"cc",28330.768,6.00,6,0.100,1266.000,0.200,257.000,0.300,98.000,0.500,34.000,1.000,4.000,5.000,0
"03/08/08","09:15:57",1749.000,"cc",28280.805,6.00,6,0.100,1371.000,0.200,278.000,0.300,84.000,0.500,16.000,1.000,0,5.000,0
"03/08/08","09:16:03",1614.000,"cc",28293.496,6.00,6,0.100,1281.000,0.200,217.000,0.300,79.000,0.500,34.000,1.000,3.000,5.000,0
"03/08/08","09:16:09",1691.000,"cc",28348.725,6.00,6,0.100,1319.000,0.200,248.000,0.300,104.000,0.500,19.000,1.000,1.000,5.000,0
"03/08/08","09:16:15",1818.000,"cc",28299.449,6.00,6,0.100,1429.000,0.200,264.000,0.300,95.000,0.500,28.000,1.000,2.000,5.000,0
"03/08/08","09:16:21",1848.000,"cc",28312.947,6.00,6,0.100,1419.000,0.200,270.000,0.300,118.000,0.500,40.000,1.000,1.000,5.000,0
"03/08/08","09:16:27",1701.000,"cc",28272.299,6.00,6,0.100,1327.000,0.200,228.000,0.300,112.000,0.500,34.000,1.000,0,5.000,0
"03/08/08","09:16:33",1477.000,"cc",28300.551,6.00,6,0.100,1128.000,0.200,220.000,0.300,99.000,0.500,29.000,1.000,1.000,5.000,0
"03/08/08","09:16:39",1433.000,"cc",28347.467,6.00,6,0.100,1154.000,0.200,193.000,0.300,72.000,0.500,14.000,1.000,0,5.000,0
"03/08/08","09:16:45",1514.000,"cc",28399.066,6.00,6,0.100,1198.000,0.200,214.000,0.300,76.000,0.500,26.000,1.000,0,5.000,0
"03/08/08","09:16:51",1667.000,"cc",28316.279,6.00,6,0.100,1301.000,0.200,235.000,0.300,99.000,0.500,31.000,1.000,1.000,5.000,0
"03/08/08","09:16:57",1730.000,"cc",28281.432,6.00,6,0.100,1341.000,0.200,264.000,0.300,88.000,0.500,35.000,1.000,2.000,5.000,0
"03/08/08","09:17:03",1469.000,"cc",28298.611,6.00,6,0.100,1148.000,0.200,220.000,0.300,84.000,0.500,16.000,1.000,1.000,5.000,0
"03/08/08","09:17:09",1613.000,"cc",28302.719,6.00,6,0.100,1241.000,0.200,259.000,0.300,86.000,0.500,26.000,1.000,1.000,5.000,0
"03/08/08","09:17:15",1867.000,"cc",28321.648,6.00,6,0.100,1393.000,0.200,327.000,0.300,111.000,0.500,32.000,1.000,4.000,5.000,0
"03/08/08","09:17:21",1717.000,"cc",28331.883,6.00,6,0.100,1298.000,0.200,240.000,0.300,123.000,0.500,52.000,1.000,4.000,5.000,0
"03/08/08","09:17:27",1457.000,"cc",28339.119,6.00,6,0.100,1161.000,0.200,178.000,0.300,82.000,0.500,36.000,1.000,0,5.000,0
"03/08/08","09:17:33",1557.000,"cc",28286.621,6.00,6,0.100,1186.000,0.200,240.000,0.300,91.000,0.500,40.000,1.000,0,5.000,0
"03/08/08","09:17:39",1704.000,"cc",28338.816,6.00,6,0.100,1322.000,0.200,271.000,0.300,90.000,0.500,18.000,1.000,3.000,5.000,0
"03/08/08","09:17:45",1746.000,"cc",28340.082,6.00,6,0.100,1353.000,0.200,251.000,0.300,106.000,0.500,33.000,1.000,3.000,5.000,0